Location: Cheyres
(46.8153°N, 6.7877°E)
Time: 23:16:05
(UTC+00:00)

FENGYUN 1C DEB - Pass Details

Date: 03 December 2021
Orbit: 843 x 915 km, 99.0° (Epoch: 21 January)

Event Time Altitude Azimuth Distance (km) Brightness Sun altitude
Exits shadow 20:14:25 11° 319° (NW) 2,439 ? -45.0°
Drops below altitude 10° 20:14:38 10° 321° (NW) 2,503 ? -45.0°
Sets 20:17:27 0° 335° (NNW) 3,435 ? -45.5°
